EW0538 Weather Reports


Display with metric or nautical units.
time (UTC)temp
F
wind
direction
speed
MPH
gust
MPH
rain 1hr
in
rain 24hr
in
rain mn
in
humidity
%
barometer
mb
20220706122524 50 160 0.0 0.0 0.00 0.10 0.00 97 1013.7
20220706121528 49 248 0.0 0.0 0.00 0.10 0.00 97 1013.7
20220706120501 49 101 0.0 0.0 0.00 0.10 0.00 97 1013.5
20220706115458 49 197 0.0 0.0 0.00 0.10 0.00 96 1013.4
20220706114446 50 143 0.0 0.0 0.00 0.10 0.00 96 1013.3
20220706113425 50 142 0.0 0.0 0.00 0.10 0.00 96 1013.3
20220706112439 50 143 0.0 0.0 0.00 0.10 0.00 96 1013.3
20220706111406 50 142 0.0 0.0 0.00 0.10 0.00 96 1013.2
20220706110337 51 142 0.0 0.0 0.00 0.10 0.00 96 1013.1
20220706105352 51 142 0.0 0.0 0.00 0.10 0.00 96 1013.0
20220706104407 51 142 0.0 0.0 0.00 0.10 0.00 96 1013.0
20220706103355 52 143 0.0 0.0 0.00 0.10 0.00 96 1012.8
20220706102404 52 127 0.0 0.0 0.00 0.10 0.00 96 1012.8
20220706101347 52 127 0.0 0.0 0.00 0.10 0.00 96 1012.8
20220706100352 52 127 0.0 0.0 0.00 0.10 0.00 96 1012.7
20220706095334 52 129 0.0 0.0 0.00 0.10 0.00 96 1012.6
20220706094316 52 129 0.0 0.0 0.00 0.10 0.00 96 1012.5
20220706093253 52 305 0.0 0.0 0.00 0.10 0.00 95 1012.3
20220706092245 53 4 0.0 0.0 0.00 0.10 0.00 95 1011.9
20220706091230 53 131 0.0 0.0 0.00 0.10 0.00 95 1011.7
20220706090713 53 131 0.0 0.0 0.00 0.10 0.00 95 1011.5
20220706085647 53 186 0.0 0.0 0.00 0.10 0.00 95 1011.3
20220706084627 54 186 0.0 0.0 0.00 0.10 0.00 94 1011.3
20220706083628 54 186 0.0 0.0 0.00 0.10 0.00 94 1011.2
20220706082641 54 176 0.0 0.0 0.00 0.10 0.00 94 1011.1
20220706081657 55 176 0.0 0.0 0.00 0.10 0.00 94 1011.0
20220706080634 55 181 0.0 0.0 0.00 0.10 0.00 93 1010.9
20220706075618 56 180 0.0 0.0 0.00 0.10 0.00 93 1011.1
20220706074624 57 180 0.0 0.0 0.00 0.10 0.00 92 1011.0
20220706073603 57 180 0.0 0.0 0.00 0.10 0.00 92 1011.0
20220706072602 58 276 0.0 0.0 0.00 0.10 0.00 91 1010.8
20220706071605 58 276 0.0 0.0 0.00 0.10 0.00 90 1010.7
20220706070544 59 284 0.0 3.0 0.00 0.10 0.00 90 1010.8
20220706065519 59 280 0.0 4.0 0.00 0.10 0.00 90 1010.7
20220706064537 59 259 0.0 4.0 0.00 0.10 0.00 91 1010.8
20220706063523 58 249 0.0 1.0 0.00 0.10 0.00 92 1010.9
20220706062509 58 339 0.0 0.0 0.00 0.10 0.00 92 1010.9
20220706061446 59 338 0.0 0.0 0.00 0.10 0.00 92 1010.7
20220706060451 59 338 0.0 0.0 0.00 0.10 0.00 92 1010.8
20220706055509 58 339 0.0 0.0 0.00 0.10 0.10 92 1010.8
20220706054521 59 127 0.0 0.0 0.00 0.10 0.10 92 1010.8
20220706053456 59 127 0.0 0.0 0.00 0.10 0.10 92 1010.6
20220706052424 59 140 0.0 0.0 0.00 0.10 0.10 92 1010.7
20220706051407 59 142 0.0 0.0 0.00 0.10 0.10 92 1011.0
20220706050347 60 143 0.0 0.0 0.00 0.10 0.10 91 1011.4
20220706045319 60 125 0.0 0.0 0.00 0.10 0.10 91 1011.6
20220706044305 60 125 0.0 0.0 0.00 0.10 0.10 91 1011.8
20220706043241 60 126 0.0 0.0 0.00 0.10 0.10 91 1011.9
20220706042248 60 125 0.0 0.0 0.00 0.10 0.10 90 1011.9
20220706041306 61 125 0.0 0.0 0.00 0.10 0.10 90 1012.0
20220706040319 61 106 0.0 0.0 0.00 0.10 0.10 91 1011.8
20220706035245 61 106 0.0 0.0 0.00 0.10 0.10 90 1011.7
20220706034241 61 105 0.0 0.0 0.00 0.10 0.10 89 1011.7
20220706033219 61 126 0.0 1.0 0.00 0.10 0.10 88 1011.6
20220706032201 61 113 0.0 0.0 0.00 0.10 0.10 88 1011.6
20220706031139 61 113 0.0 0.0 0.00 0.10 0.10 88 1011.6
20220706030137 61 151 0.0 0.0 0.00 0.10 0.10 88 1011.4
20220706025132 62 348 0.0 0.0 0.00 0.10 0.10 87 1011.3
20220706024133 62 298 0.0 0.0 0.00 0.10 0.10 87 1011.2
20220706023101 62 297 0.0 0.0 0.00 0.10 0.10 86 1011.2
20220706022117 62 232 0.0 1.0 0.00 0.10 0.10 84 1011.0
20220706021125 62 23 0.0 0.0 0.00 0.10 0.10 85 1011.2
20220706020059 63 253 0.0 0.0 0.00 0.10 0.10 83 1011.0
20220706015030 63 262 1.0 3.0 0.00 0.10 0.10 83 1010.9
20220706014047 63 277 2.0 6.0 0.00 0.10 0.10 82 1010.5
20220706013056 63 243 1.0 6.0 0.00 0.10 0.10 82 1010.4
20220706012046 63 342 0.0 0.0 0.00 0.10 0.10 84 1010.3
20220706011015 63 33 0.0 6.0 0.00 0.10 0.10 85 1010.1
20220706010017 63 331 2.0 6.0 0.00 0.10 0.10 83 1010.1
20220706005036 63 5 1.0 6.0 0.00 0.10 0.10 84 1009.9
20220706004032 62 271 1.0 6.0 0.00 0.10 0.10 85 1009.5
20220706003010 62 287 1.0 6.0 0.00 0.10 0.10 86 1009.2
20220706002012 62 314 0.0 2.0 0.00 0.10 0.10 87 1009.0
20220706000948 62 8 0.0 0.0 0.00 0.10 0.10 85 1008.8
20220705235926 62 6 0.0 1.0 0.00 0.10 0.10 87 1008.6
20220705234917 61 143 2.0 8.0 0.00 0.10 0.10 85 1008.5
20220705233928 61 127 2.0 8.0 0.00 0.10 0.10 87 1008.7
20220705232904 61 146 1.0 6.0 0.00 0.10 0.10 90 1008.8
20220705231917 60 113 2.0 8.0 0.00 0.10 0.10 90 1008.8
20220705230851 60 161 3.0 8.0 0.04 0.10 0.10 89 1009.0
20220705225829 60 155 3.0 7.0 0.06 0.10 0.10 89 1009.3
20220705224815 60 152 1.0 5.0 0.06 0.09 0.10 88 1009.6
20220705223830 61 115 0.0 5.0 0.10 0.09 0.09 87 1009.8
20220705222800 61 131 0.0 2.0 0.20 0.08 0.08 84 1009.8
20220705221805 62 134 0.0 3.0 0.18 0.04 0.05 82 1009.8
20220705220752 63 146 0.0 3.0 0.06 0.02 0.02 80 1009.6
20220705215808 65 139 0.0 1.0 0.00 0.01 0.01 74 1009.1
20220705214743 65 138 2.0 20.0 0.00 0.00 0.00 68 1008.6
20220705213720 66 205 7.0 20.0 0.00 0.00 0.00 67 1008.1
20220705212733 68 262 7.0 17.0 0.00 0.00 0.00 60 1007.6
20220705211709 75 142 4.0 12.0 0.00 0.00 0.00 47 1007.0
20220705210734 76 155 4.0 11.0 0.00 0.00 0.00 42 1006.3
20220705205728 77 102 2.0 9.0 0.00 0.00 0.00 43 1005.6
20220705204715 77 163 3.0 8.0 0.00 0.00 0.00 43 1005.0
20220705203659 78 152 2.0 8.0 0.00 0.00 0.00 42 1005.0
20220705202624 79 143 3.0 11.0 0.00 0.00 0.00 40 1005.3
20220705201642 81 43 3.0 11.0 0.00 0.00 0.00 38 1005.2
20220705200628 84 160 1.0 5.0 0.00 0.00 0.00 34 1005.1
20220705195637 85 113 0.0 5.0 0.00 0.00 0.00 32 1005.2
20220705194609 85 262 0.0 4.0 0.00 0.00 0.00 32 1005.5
20220705193601 85 18 0.0 0.0 0.00 0.00 0.00 35 1005.8
20220705192619 83 131 1.0 5.0 0.00 0.00 0.00 33 1006.0
20220705191551 83 155 1.0 4.0 0.00 0.00 0.00 35 1006.3
20220705190554 82 239 0.0 4.0 0.00 0.00 0.00 34 1006.5
20220705185608 81 256 0.0 2.0 0.00 0.00 0.00 34 1006.6
20220705184620 80 123 0.0 3.0 0.00 0.00 0.00 36 1006.7
20220705183612 81 153 0.0 2.0 0.00 0.00 0.00 38 1006.9
20220705182538 80 141 0.0 3.0 0.00 0.00 0.00 40 1007.0
20220705181601 80 142 0.0 3.0 0.00 0.00 0.00 38 1007.3
20220705180616 80 233 0.0 1.0 0.00 0.00 0.00 37 1007.5
20220705175607 79 30 0.0 3.0 0.00 0.00 0.00 42 1007.5
20220705174613 79 357 0.0 3.0 0.00 0.00 0.00 40 1007.8
20220705173555 78 61 0.0 4.0 0.00 0.00 0.00 42 1007.9
20220705172520 77 95 0.0 4.0 0.00 0.00 0.00 43 1008.1
20220705171543 76 172 0.0 0.0 0.00 0.00 0.00 45 1008.3
20220705170603 75 20 0.0 2.0 0.00 0.00 0.00 44 1008.5
20220705165603 74 148 0.0 3.0 0.00 0.00 0.00 44 1008.6
20220705164626 73 131 0.0 0.0 0.00 0.00 0.00 52 1008.8
20220705163551 70 136 0.0 0.0 0.00 0.00 0.00 58 1008.9
20220705162520 69 120 0.0 0.0 0.00 0.00 0.00 56 1009.1
20220705161541 68 352 0.0 0.0 0.00 0.00 0.00 56 1009.1
20220705160557 68 46 0.0 0.0 0.00 0.00 0.00 62 1009.2
20220705155603 68 15 0.0 1.0 0.00 0.00 0.00 61 1009.3
20220705154603 69 32 0.0 0.0 0.00 0.00 0.00 61 1009.4
20220705153532 69 6 0.0 2.0 0.00 0.00 0.00 58 1009.6
20220705152551 69 4 0.0 0.0 0.00 0.00 0.00 58 1009.7
20220705151547 67 148 0.0 0.0 0.00 0.00 0.00 61 1009.7
20220705150533 65 148 0.0 0.0 0.00 0.00 0.00 64 1009.8
20220705145525 62 150 0.0 0.0 0.00 0.00 0.00 71 1009.9
20220705144544 61 150 0.0 0.0 0.00 0.00 0.00 75 1010.0
20220705143519 59 150 0.0 1.0 0.00 0.00 0.00 79 1010.0
20220705142525 59 150 0.0 0.0 0.00 0.00 0.00 80 1010.1
20220705141457 58 126 0.0 2.0 0.00 0.00 0.00 79 1010.0
20220705140444 58 152 0.0 1.0 0.00 0.00 0.00 80 1010.0
20220705135447 57 150 0.0 0.0 0.00 0.00 0.00 82 1009.9
20220705134427 57 218 0.0 0.0 0.00 0.00 0.00 81 1009.8
20220705133402 56 158 0.0 0.0 0.00 0.00 0.00 84 1009.4
20220705132419 55 115 0.0 0.0 0.00 0.00 0.00 86 1009.2
20220705131348 54 203 0.0 0.0 0.00 0.00 0.00 87 1008.9
20220705130349 54 203 0.0 0.0 0.00 0.00 0.00 86 1008.8
20220705125345 54 203 0.0 0.0 0.00 0.00 0.00 87 1008.7
20220705124337 54 125 0.0 0.0 0.00 0.00 0.00 87 1008.8
20220705123354 53 158 0.0 0.0 0.00 0.00 0.00 88 1008.6